Location: Cheching
(60.0667°N, 164.2167°W)
Time: 13:32:21
(UTC+00:00)

STRAND 1 - Pass Details

Date: 18 January 2021
Orbit: 768 x 780 km, 98.4° (Epoch: 04 March)

Event Time Altitude Azimuth Distance (km) Brightness Sun altitude
Rises 17:28:15 0° 175° (S) 3,235 ? -15.0°
Reaches altitude 10° 17:30:36 10° 180° (S) 2,313 ? -14.8°
Maximum altitude 17:35:37 56° 258° (WSW) 921 ? -14.2°
Drops below altitude 10° 17:40:41 10° 337° (NNW) 2,336 ? -13.6°
Enters shadow 17:42:10 - 341° (NNW) 2,917 ? -13.4°
